OPS 4682 DEB, 38373

Orbit data source: Space-Track

OPS 4682 DEB, 38373 is space debris in LEO originally from a launch on Sat, 03 Apr 1965 UTC launched from the Air Force Western Test Range (AFWTR). Debris objects in space refer to the collection of defunct objects orbiting the Earth. Examples of debris include non-operational satellites, rocket bodies, and fragments generated from explosions, collisions, or faulty payload assembly.

Loading next visibility...
Identifier
38373, 1965-027CA
Orbit
LEO
Country
Flag of USUS
Related business
Manufacturer
Unknown
Mission
Spacecraft
Bus & Motor
Unknown
Mass
Unknown
Launch date (UTC)
1965-04-03 (61 years ago)
Launch vehicle
Unknown
Launch site
Air Force Western Test Range (AFWTR)
Object type
Payload
Rocket body
Debris
Shape & HBR
Unknown shape, 0.1 m
Radar Cross Section
Small (<0.1 m²)

Expand to show TLE details & history
Last TLE update: 13 hours ago

TLE from 13 hours ago
0 OPS 4682 DEB
1 38373U 65027CA  26100.24611097  .00000992  00000-0  32186-2 0  9995
2 38373  90.2751  28.7862 0032871   8.4358 351.7310 13.01026521608209
Epoch: 2026-04-10T05:54Z
TLE epoch observation values (Epoch: 2026-04-10T05:54:23.987Z)
Latitude
-0.00009°
Longitude
101.70373°
Altitude
1,236.109 km
Speed
7.248 km/s
True Right ascension
01h 55m 08s
True Declination
0° 00' 00"
Sunlit
Object was in daylight at epoch
Visualization orbit readout
Latitude
Unknown
Longitude
Unknown
Altitude
Unknown
Speed
Unknown
Apparent Right ascension
Unknown
Apparent Declination
Unknown
Sunlit
N/A
Visualization observer readout
Local Sidereal Time
01:36:15
Azimuth
Unknown
Elevation
Unknown
Doppler factor
Unknown
Orbital elements
Apogee altitude
1,280.284 km
Perigee altitude
1,230.101 km
Semi-major axis
7,633.33 km
Eccentricity
0.00329
Inclination
90.2751°
RAAN
28.7862°
Arg. of periapsis
8.4358°
True anomaly
351.67661°
Mean anomaly
351.731°
Eccentric anomaly
351.70382°
Mean motion
3.25441 °/min
Orbital period
110.62 mins
BSTAR
0.0032186
Loading maneuver chart data...
Computing Atmospheric mass density...
Loading historical data...
Loading historical data...
Loading historical data...
Loading historical data...
Loading historical data...
Loading historical data...
Loading historical data...

Documentation

Showing up to 5 results
|